Wind_Speed
57 56 55 54 53 51 49 48 46 44 42 41 40 41 41 42 42 41 40 39 38 37 36 34 32 31 31 30 30 29 29 28 27 27 26 25 24 23 21 21 22 23 23 24 24 24 24 24 23 22 21 21 22 23 23 22 22 21 21 21 21 21 20 19 20 20 17 14 13 13 12 12 11 10 10 10 10 11 13 14 16 17 18 18 19
58 57 55 55 54 52 50 48 46 44 43 42 41 40 42 42 42 41 41 40 40 39 38 36 34 33 33 33 32 31 31 30 29 29 28 27 25 24 24 23 23 24 25 26 26 25 25 25 24 22 21 22 22 23 23 23 24 23 22 22 22 21 20 19 19 19 18 15 13 13 13 12 11 10 9 10 11 12 14 14 15 16 16 16 17
58 56 55 55 54 52 51 49 47 45 43 42 41 41 41 42 41 42 42 41 40 40 39 37 36 35 34 34 33 32 32 31 31 31 30 28 27 26 25 25 24 25 26 28 27 27 26 25 25 23 22 22 23 22 22 23 24 24 22 22 21 20 19 18 18 19 19 16 14 13 12 12 11 10 10 11 13 14 16 17 17 18 17 17 17
57 56 56 55 54 53 52 50 49 47 45 43 42 41 41 41 42 41 41 41 41 40 40 39 38 37 36 35 35 33 33 32 33 32 31 30 29 28 27 26 26 26 27 28 28 28 28 27 26 25 24 23 23 22 22 23 24 24 23 22 21 19 18 18 18 18 19 18 15 13 11 11 11 11 11 13 14 17 19 20 21 20 19 19 19
57 56 56 55 54 54 53 51 50 48 46 44 42 41 40 41 41 41 41 41 41 41 40 40 39 38 38 37 36 35 34 33 34 34 33 32 31 30 29 28 27 27 28 29 29 30 29 28 27 26 25 24 24 23 23 23 24 24 24 22 20 19 18 19 19 19 19 19 17 14 12 12 12 12 12 14 17 19 21 22 23 22 21 21 20
56 56 56 55 54 54 53 52 51 49 47 44 43 41 41 41 41 42 42 42 41 41 40 41 40 40 39 38 37 36 35 34 34 34 34 33 32 32 31 30 30 29 29 30 30 31 31 30 29 28 27 26 25 25 24 24 25 25 24 23 21 20 20 20 20 20 20 20 19 17 15 14 14 14 14 15 18 21 23 24 24 23 23 23 22
56 56 55 55 54 54 53 52 51 49 47 45 43 42 41 41 41 42 42 42 41 41 41 41 41 40 40 39 38 38 36 35 35 35 35 35 34 34 33 32 32 31 30 30 31 31 31 31 31 30 29 27 26 26 25 25 25 25 24 23 22 21 21 20 19 19 19 20 20 19 17 16 16 16 16 17 19 22 24 25 26 25 25 24 23
55 55 55 55 54 53 52 51 50 48 46 45 44 43 42 41 41 42 42 42 42 41 41 41 40 40 41 40 40 39 38 37 36 36 36 36 36 35 34 34 33 33 32 31 31 32 32 32 32 32 31 28 26 26 26 26 25 25 24 23 22 21 21 20 19 18 18 19 20 19 18 18 18 18 18 19 21 23 24 25 27 28 27 25 24
55 55 55 55 54 53 52 50 49 48 47 46 45 44 43 42 41 42 43 43 42 41 41 41 40 41 42 41 41 40 39 39 38 37 36 36 36 35 34 34 34 34 34 33 32 32 32 32 32 32 31 29 26 26 26 26 25 24 23 22 21 21 21 21 20 19 18 19 20 19 19 19 20 19 19 20 22 24 25 26 27 28 26 25 24
55 55 55 55 54 53 52 51 49 48 48 47 46 45 44 43 42 42 43 43 43 42 42 42 42 42 43 42 42 41 41 40 39 38 37 36 35 34 34 34 34 34 34 34 34 33 33 32 30 31 31 28 26 26 26 26 26 24 22 22 22 21 21 21 21 20 20 21 21 19 20 21 21 21 22 22 23 25 26 26 26 25 23 23 23
55 55 55 54 53 53 52 51 50 49 48 48 47 46 45 44 43 42 42 43 43 43 43 43 43 43 43 43 43 43 42 41 40 39 37 35 34 33 33 33 33 34 34 34 33 32 33 32 29 29 30 29 27 26 26 26 26 24 23 23 22 21 20 21 22 21 21 22 21 20 21 22 22 22 24 25 25 25 25 25 25 23 21 21 22
55 55 54 54 53 53 53 52 51 50 49 48 48 47 45 44 44 43 43 43 43 44 44 44 45 44 44 45 44 44 43 41 40 39 37 35 32 32 32 31 32 34 34 32 30 29 31 31 29 28 29 30 28 26 26 27 26 25 24 23 23 22 21 21 22 22 21 22 23 22 23 23 23 25 26 26 26 26 25 24 23 22 21 21 22
55 54 54 54 54 54 53 52 51 51 50 49 48 47 46 45 45 44 44 43 43 44 44 44 45 45 45 45 45 44 43 42 41 39 37 33 30 30 30 31 34 35 33 32 30 28 30 30 29 27 28 29 28 26 25 26 27 26 24 23 24 23 22 23 25 24 23 24 25 25 25 26 25 26 27 27 27 26 24 24 23 22 21 21 22
54 54 54 54 54 54 53 53 52 51 51 50 49 48 47 46 45 45 45 44 44 44 44 45 45 45 46 45 44 44 43 42 41 39 36 31 28 28 30 32 35 36 34 31 31 31 31 30 27 25 26 27 27 26 24 25 27 26 24 24 24 24 24 25 26 25 25 26 28 28 28 27 25 25 27 26 25 24 23 23 23 22 23 23 23
54 54 54 55 55 54 54 53 52 51 51 51 50 49 49 47 46 46 46 46 45 45 45 44 44 45 45 44 44 44 43 42 41 39 35 30 26 27 30 33 36 37 34 31 31 31 32 30 26 23 23 24 25 24 22 23 25 25 25 24 23 23 25 25 26 27 28 27 28 27 25 24 23 26 28 25 23 22 21 22 22 23 23 23 24
54 54 54 55 55 55 55 54 52 51 51 51 51 51 50 49 48 47 47 46 46 46 45 45 44 44 43 43 44 44 42 41 40 38 34 28 26 29 33 34 36 37 34 30 29 30 31 29 24 21 21 21 22 21 20 21 23 24 24 24 21 22 26 26 26 28 28 26 24 22 20 20 22 24 24 21 20 20 19 20 21 21 22 24 26
53 53 54 55 55 55 54 54 52 52 52 53 53 52 51 51 50 49 48 47 47 47 47 45 45 44 42 43 43 42 41 40 39 37 33 28 28 33 35 34 35 34 31 28 28 29 30 27 21 19 20 20 20 20 19 19 20 22 23 22 20 22 26 26 26 28 27 23 20 19 19 20 21 19 17 17 18 18 19 21 22 22 23 25 26
51 52 53 54 54 54 54 53 52 52 53 54 54 53 52 51 51 50 49 48 47 47 46 45 44 43 42 42 41 40 39 38 37 36 31 27 30 33 32 31 33 31 28 27 26 26 28 25 21 20 21 20 19 18 17 17 19 20 20 19 20 23 26 25 24 23 21 17 17 18 19 20 18 16 15 17 18 20 22 23 23 23 23 23 22
50 51 52 53 53 53 53 53 52 52 53 54 54 53 52 52 52 51 49 49 48 47 46 45 45 44 42 41 39 39 39 38 36 34 29 27 31 32 30 30 32 30 27 26 26 25 25 24 22 22 21 19 17 16 15 17 17 17 17 18 20 23 24 23 21 20 16 14 14 16 17 17 16 15 17 18 20 21 21 21 20 20 19 18 18
47 49 50 51 50 51 52 52 52 53 53 54 53 53 52 51 51 51 50 50 48 46 46 46 45 44 42 40 39 39 38 37 34 31 27 28 30 31 30 30 30 28 25 25 25 24 23 23 22 21 19 17 15 14 14 15 15 16 17 18 19 21 21 19 19 19 17 15 15 16 15 15 15 16 18 19 19 19 17 16 16 16 16 16 17
45 47 48 49 49 50 51 52 52 53 53 53 53 52 51 51 51 51 50 50 48 47 46 46 46 44 42 40 39 38 37 35 32 28 27 28 29 29 29 28 27 26 24 23 23 24 25 25 23 20 17 16 14 13 14 15 16 17 18 19 19 19 19 18 17 16 16 16 16 16 15 14 15 15 16 16 15 14 12 12 12 13 14 15 17
45 45 47 48 49 50 51 52 52 52 53 53 52 52 52 51 50 50 49 49 48 47 46 46 45 44 42 40 39 37 35 32 30 28 27 27 27 27 26 25 24 23 22 22 23 23 23 22 20 17 15 13 13 13 14 16 18 19 20 20 19 19 18 18 17 16 16 16 16 15 14 13 12 11 12 12 11 10 8 9 10 12 14 16 19
46 45 45 47 48 49 50 51 52 52 53 54 54 53 52 50 49 49 49 49 48 48 47 46 45 43 42 41 38 36 34 31 29 28 27 27 25 24 23 22 22 21 20 20 20 20 19 18 15 14 13 12 13 14 15 17 19 20 20 20 19 19 18 17 16 16 15 15 15 14 12 10 9 9 10 11 10 8 7 8 11 13 15 17 21
45 46 45 46 47 49 50 51 52 53 54 55 55 54 52 50 50 49 49 48 48 48 48 46 44 43 42 41 38 35 33 30 29 28 28 27 25 23 23 22 21 20 19 19 18 17 16 14 12 12 12 13 14 16 17 18 19 19 19 19 18 17 16 16 15 15 15 14 13 11 8 8 9 10 10 9 9 8 9 11 13 15 17 19 22
42 44 45 46 48 50 52 52 53 54 54 55 56 56 54 52 51 50 50 49 49 49 48 46 44 43 42 40 37 35 32 31 29 29 28 26 24 23 23 22 21 20 21 20 18 16 14 12 11 12 13 15 17 18 18 18 18 17 16 16 15 13 13 13 14 14 13 11 10 8 8 10 11 11 10 9 10 11 12 14 16 17 19 21 22
40 42 45 47 49 50 52 52 53 53 53 53 54 56 55 54 52 51 50 49 50 49 48 45 44 43 41 38 36 34 32 31 30 29 28 26 24 23 23 22 22 22 22 21 19 16 15 13 13 13 15 17 18 18 17 15 14 14 12 10 10 11 12 13 13 12 10 9 10 10 10 11 12 11 11 12 12 13 15 16 17 18 20 21 23
35 39 43 47 49 50 51 51 51 50 51 52 52 53 54 54 53 52 51 51 51 49 47 46 44 42 39 37 35 34 33 31 30 29 28 26 25 24 24 24 24 24 24 22 20 17 16 15 14 15 16 17 17 15 13 12 11 10 9 9 10 11 11 12 12 11 10 10 11 11 11 11 12 13 13 14 14 15 16 18 18 19 20 22 24
33 37 41 45 48 50 51 51 51 50 50 51 51 52 53 54 54 54 54 54 54 51 49 47 44 41 38 37 36 34 32 31 30 29 28 26 25 25 25 25 26 26 25 22 20 19 18 17 16 16 17 16 15 13 11 9 8 8 8 9 9 10 10 11 11 11 11 11 11 11 11 13 14 15 16 16 17 17 17 18 19 19 20 22 24
30 35 39 43 46 48 49 51 52 52 52 53 53 53 55 56 55 55 55 54 53 51 49 46 43 40 37 36 36 34 32 31 30 28 26 24 23 23 23 24 25 25 24 22 21 21 19 18 18 18 17 15 13 11 9 8 8 8 8 9 9 9 10 11 12 12 12 12 12 12 14 15 16 16 17 18 18 17 17 18 18 19 20 21 22
27 31 36 40 43 45 47 49 51 52 53 56 57 57 57 57 57 56 55 51 48 48 46 42 39 37 36 34 32 30 28 28 27 25 23 21 20 20 21 21 22 23 23 23 22 21 20 19 19 18 16 14 13 11 9 9 9 9 10 10 10 10 11 12 13 14 14 15 15 15 16 17 18 18 19 18 17 16 16 17 18 19 20 20 20
27 30 34 38 42 45 48 50 53 55 57 59 61 61 59 57 55 54 51 48 47 46 43 37 34 33 31 30 28 25 22 22 23 22 21 20 21 21 20 20 20 21 22 23 22 21 20 19 19 17 16 14 12 10 10 11 11 12 12 12 12 12 12 12 14 16 16 17 17 17 18 19 19 19 18 17 16 15 15 17 19 20 20 19 19
26 29 32 36 40 45 49 53 54 55 57 58 60 61 61 56 50 45 43 43 44 42 36 30 28 27 25 24 25 24 22 21 21 22 22 22 22 21 20 19 19 19 20 20 20 20 20 19 18 17 15 13 12 12 13 13 13 13 13 12 12 11 12 13 14 16 18 19 19 20 19 19 18 17 15 14 14 15 17 19 20 20 19 19 19
23 26 28 29 32 38 44 50 55 58 58 58 58 59 61 59 53 47 42 37 35 32 28 24 23 23 23 22 22 23 24 24 23 24 24 22 21 21 20 20 19 19 20 20 21 20 20 19 18 16 13 12 14 15 15 14 14 14 12 11 11 12 12 13 13 15 16 16 16 16 15 15 15 14 14 15 16 17 19 20 21 20 19 19 20
17 21 21 19 21 24 26 29 38 45 50 52 53 53 55 57 57 55 51 44 36 31 29 27 25 24 24 25 24 24 25 25 25 26 25 23 23 22 21 21 21 22 22 22 21 20 19 19 18 16 14 15 16 16 15 15 14 12 11 11 11 11 11 11 12 12 13 13 13 14 14 15 15 16 16 16 17 18 18 18 18 17 18 19 20
5 9 12 13 16 18 14 13 19 27 33 38 40 41 44 46 47 47 47 45 41 37 33 30 28 27 27 27 27 25 24 24 24 25 25 24 24 24 24 24 25 25 24 23 21 20 20 20 19 18 17 18 17 16 15 13 12 10 10 10 10 10 11 11 11 12 12 12 13 15 15 15 16 15 15 15 15 16 16 15 15 16 18 19 19
8 4 2 6 12 14 11 9 12 20 27 31 31 31 32 32 31 30 32 35 37 36 34 32 31 30 28 27 26 24 23 23 23 22 22 22 23 24 25 25 25 25 25 24 22 21 20 20 19 18 18 18 16 14 13 11 10 10 10 10 10 10 11 11 11 11 11 12 13 14 14 14 14 14 14 14 14 14 14 14 15 17 18 18 19
13 13 12 7 2 4 4 6 9 15 22 24 22 21 21 22 23 26 29 32 33 33 33 33 32 29 27 25 23 23 22 21 20 19 18 19 20 21 21 21 22 22 23 23 23 22 21 19 18 18 17 16 14 12 11 10 10 11 11 11 11 11 11 10 10 10 10 11 11 11 11 12 12 12 12 12 13 13 13 15 17 17 17 17 18
14 15 16 13 10 8 10 11 11 10 12 14 14 15 17 21 26 29 30 29 29 29 29 29 28 26 24 23 22 22 23 23 22 21 20 20 20 19 19 18 18 19 19 20 21 22 21 19 18 17 16 14 13 12 11 11 11 11 11 11 11 11 11 10 10 10 9 8 7 6 7 9 11 12 12 12 12 13 14 15 16 16 16 16 17
13 13 13 12 9 6 7 9 8 6 7 12 16 17 18 21 25 26 25 24 24 24 24 24 23 22 23 23 24 25 26 26 25 24 23 21 20 20 20 18 18 18 18 19 20 20 19 18 16 15 15 14 13 12 12 12 12 11 11 12 12 11 11 11 10 9 8 6 5 5 7 8 10 12 13 13 13 14 15 15 15 15 15 16 17
12 11 10 9 8 5 4 6 7 8 12 17 18 19 20 21 20 20 19 20 20 20 20 20 21 22 23 25 26 27 29 28 26 24 23 22 21 21 21 20 19 19 19 19 19 19 17 16 15 14 14 14 13 13 12 11 11 11 11 11 11 11 11 10 10 9 8 6 6 7 8 9 10 11 12 13 14 15 15 15 15 15 16 17 18
9 10 10 8 8 7 7 8 9 10 14 17 18 18 19 20 18 17 17 17 18 18 19 19 20 22 23 24 24 25 26 26 25 24 23 21 21 20 20 20 21 20 20 20 19 18 16 14 14 14 14 14 13 12 10 10 10 10 10 11 11 11 11 10 10 9 8 8 8 9 10 10 10 11 12 14 15 16 16 15 15 15 16 17 17
6 8 8 7 7 7 7 8 10 11 13 16 17 17 17 17 16 15 15 15 16 18 19 20 21 21 22 22 23 23 24 25 25 24 23 21 19 19 20 21 21 20 19 19 18 16 14 14 14 15 14 13 11 9 8 8 8 9 10 11 11 11 11 11 10 10 9 9 10 10 10 11 12 13 14 15 16 17 16 16 15 15 16 16 16
3 6 6 6 6 6 5 6 8 10 12 13 14 14 14 14 14 15 15 15 16 17 18 19 20 21 21 22 22 22 22 22 22 21 20 19 19 19 19 19 19 19 18 18 17 15 14 14 15 14 12 9 7 6 6 7 8 9 10 11 11 11 11 11 11 10 10 10 11 11 11 12 14 15 16 17 17 16 16 15 15 15 16 16 15
3 5 6 6 6 6 4 4 5 7 9 11 12 12 13 13 14 15 16 16 16 16 17 19 20 21 22 22 22 21 20 20 19 17 17 18 18 18 18 19 19 19 19 18 17 16 15 15 14 13 10 8 7 5 5 6 8 9 10 10 10 11 11 11 11 11 11 11 11 11 12 13 15 16 17 17 16 15 14 14 14 15 15 15 13
2 3 5 5 5 5 5 6 6 7 8 9 10 12 14 15 16 17 17 17 17 18 18 19 21 23 24 23 23 21 20 19 18 17 17 18 19 19 19 19 19 20 20 18 17 16 15 14 13 11 9 8 7 6 6 6 6 7 7 8 9 9 10 11 11 11 11 12 12 12 13 13 13 13 13 13 12 12 12 13 14 15 15 13 11
3 2 4 6 7 7 8 9 10 11 12 12 12 13 15 16 17 18 18 19 20 20 19 18 20 22 23 23 23 22 21 21 20 20 19 19 19 19 19 19 19 19 18 16 15 15 15 14 12 10 8 8 7 7 6 5 5 5 5 6 8 9 11 12 12 11 11 11 12 12 12 12 11 11 11 11 11 12 12 13 14 14 13 12 10
2 3 5 7 9 10 11 12 13 14 16 16 16 16 16 16 17 19 20 20 20 19 17 16 16 17 19 21 21 22 22 21 21 20 20 19 19 19 19 19 18 17 16 15 15 15 15 14 12 10 9 8 8 7 5 4 4 4 5 7 9 11 11 11 10 8 8 8 8 8 8 8 9 10 10 11 11 11 12 13 13 13 12 10 10
3 3 4 5 7 9 11 11 12 15 19 20 20 19 18 19 19 19 19 18 18 17 15 15 15 15 16 17 18 19 19 19 18 18 18 18 18 19 18 18 17 16 16 16 16 15 14 13 12 10 9 9 8 7 5 2 1 1 3 5 6 6 4 3 2 2 3 4 4 4 5 5 6 8 9 10 11 11 12 12 13 12 10 10 10
5 5 5 5 5 6 7 7 9 13 18 20 21 20 20 20 19 18 16 16 17 16 15 16 16 16 16 17 17 17 18 18 17 17 17 17 17 17 16 15 16 16 17 17 16 15 14 13 11 10 10 10 9 7 6 3 1 3 2 1 1 1 3 3 3 2 0 1 2 3 4 5 6 8 9 10 10 11 11 12 12 11 10 10 10
6 6 5 4 3 3 5 7 9 13 16 17 18 19 19 19 18 17 17 18 19 18 16 16 16 16 17 18 18 17 17 16 16 16 16 16 16 16 15 15 16 16 17 17 16 15 14 14 13 12 12 12 10 8 8 6 2 3 5 6 6 6 5 5 5 4 3 2 1 1 2 4 6 7 8 9 10 10 10 11 11 11 10 10 10
9 8 6 3 1 2 2 4 6 8 10 12 13 15 16 17 17 18 18 19 20 19 18 17 17 17 16 16 16 16 16 16 15 15 14 14 14 15 15 16 16 16 16 17 16 15 15 15 15 13 13 12 11 9 9 9 5 2 3 5 7 8 8 7 6 5 5 4 3 2 2 3 4 6 7 8 9 9 10 11 11 11 10 10 11
Wind_Direction
224 225 226 228 229 230 232 232 233 234 234 236 237 236 234 234 234 235 236 236 236 236 236 236 237 237 237 237 236 234 234 233 232 231 232 234 236 238 239 238 239 240 242 243 242 241 240 239 241 242 244 246 248 250 250 251 252 252 253 256 259 264 271 274 277 277 273 268 266 264 263 263 263 265 269 275 281 288 292 294 293 291 290 289 287
224 225 226 227 229 230 231 232 232 233 234 235 236 235 233 233 233 234 235 236 236 237 237 236 236 237 238 238 237 236 236 235 234 234 234 234 236 238 240 241 241 242 242 243 242 241 242 242 242 242 243 247 249 250 251 253 254 254 254 256 259 264 269 271 272 272 270 266 262 261 263 265 268 272 277 282 287 294 300 304 305 303 300 296 292
224 225 226 228 229 230 231 232 232 233 233 233 234 233 232 231 232 233 234 235 236 237 237 237 237 238 239 239 239 238 237 236 236 236 236 236 237 240 242 243 244 245 245 245 244 243 243 244 245 244 244 246 248 249 250 251 253 254 254 255 258 261 263 265 266 268 269 264 255 255 260 263 267 273 279 287 297 307 312 316 318 317 313 307 304
223 224 226 227 229 229 230 231 231 232 233 232 232 231 230 230 231 232 233 234 235 236 236 237 238 239 240 240 241 240 239 238 237 238 238 239 240 243 246 247 248 248 249 250 249 247 245 245 246 246 246 248 249 249 249 250 251 252 252 254 256 259 263 265 266 267 268 264 258 257 261 262 265 273 286 299 309 314 317 320 321 320 318 314 311
223 224 225 226 227 229 230 230 231 232 233 232 231 230 229 229 230 231 232 233 235 235 236 237 237 238 240 241 241 242 241 240 239 240 241 242 243 245 248 250 251 252 253 254 255 253 250 248 247 247 248 250 252 251 250 250 250 250 251 253 256 259 265 268 269 268 268 267 268 268 267 268 273 284 299 309 314 316 318 320 319 318 317 315 313
222 223 224 225 227 229 229 230 231 232 233 232 231 230 229 229 229 230 231 233 234 235 236 237 238 239 241 242 243 244 243 243 242 242 243 243 244 246 248 251 253 254 255 256 257 258 257 254 251 250 249 250 252 254 254 252 251 251 252 254 256 259 263 265 266 266 266 268 270 272 272 275 282 292 302 307 310 314 317 316 314 314 315 314 313
221 223 223 224 226 229 230 231 232 233 234 233 232 231 230 229 229 229 231 232 234 235 236 237 239 241 242 243 245 245 246 246 245 245 245 245 245 247 249 252 254 255 256 257 258 259 260 259 257 255 253 251 251 254 256 255 255 255 256 256 257 260 262 262 262 262 263 265 268 272 277 280 285 292 298 301 305 310 314 312 311 313 314 313 312
220 222 223 224 226 229 231 232 232 234 235 235 233 232 231 230 230 230 231 232 234 235 237 238 240 242 243 244 246 247 248 249 248 248 247 247 247 248 251 253 256 257 259 259 259 260 261 261 260 258 257 254 250 250 253 256 257 258 259 257 256 258 261 260 257 257 261 264 266 271 277 281 284 290 295 300 303 306 309 309 308 310 311 311 310
220 221 223 225 228 229 230 231 232 234 235 235 234 233 232 231 231 231 232 232 234 235 237 239 241 243 244 245 246 248 249 249 250 250 249 249 249 251 253 255 257 259 261 261 261 262 262 263 263 261 259 255 251 248 249 253 256 258 258 256 253 256 260 259 255 255 259 262 266 271 275 279 283 287 294 299 299 302 306 306 305 307 308 307 308
220 222 224 228 230 229 229 230 231 232 233 234 234 233 232 232 231 232 232 233 234 236 237 239 241 242 244 245 247 248 249 250 251 251 251 251 252 254 255 257 258 260 261 262 263 264 264 264 265 265 263 256 250 248 247 249 253 256 257 255 253 255 257 257 255 256 260 264 267 270 272 276 282 288 293 294 293 297 303 304 303 303 303 304 306
220 223 227 230 229 228 228 229 230 231 232 233 234 234 233 232 231 232 233 233 234 235 237 239 240 242 243 245 247 248 250 251 252 252 253 253 254 256 257 259 260 261 261 262 264 267 267 265 264 266 266 260 254 251 249 248 251 255 256 254 254 254 254 256 257 260 263 265 265 266 270 275 283 288 289 287 288 295 301 302 300 299 301 303 304
221 225 229 229 228 228 229 229 230 231 232 232 233 233 233 233 232 232 232 233 234 235 236 238 240 242 244 245 247 249 251 252 253 253 254 254 256 258 259 260 259 259 260 261 263 267 270 269 266 264 266 264 260 256 253 250 250 253 254 254 255 253 251 255 258 260 262 265 264 264 267 272 278 283 283 283 289 297 301 299 298 297 298 300 300
223 225 227 227 227 228 228 228 229 231 231 231 231 232 233 233 233 232 232 233 233 234 236 238 240 242 244 245 247 250 252 253 254 254 255 256 257 258 259 259 259 259 260 261 262 264 267 269 268 266 267 267 266 262 258 253 251 251 252 253 253 253 253 255 257 259 262 266 266 263 264 267 271 278 282 286 292 299 300 298 297 295 296 296 297
224 225 226 226 227 228 227 228 230 231 230 229 229 230 232 233 233 232 232 232 233 234 235 237 239 241 243 245 248 250 252 253 254 255 255 256 257 257 256 257 259 259 259 260 261 262 264 266 267 267 268 269 270 267 262 257 251 249 250 251 252 256 256 257 264 269 268 268 268 267 267 271 276 282 285 288 294 297 297 295 293 292 293 294 296
226 226 226 226 227 227 227 228 230 230 229 228 228 230 232 232 232 232 232 232 233 234 235 236 238 240 242 245 247 249 251 253 254 255 255 255 255 255 255 255 257 259 258 259 260 262 265 267 266 265 266 269 270 268 265 260 253 249 250 252 254 258 260 264 274 276 270 269 272 274 274 277 283 286 288 291 293 293 292 290 290 291 292 293 294
227 226 225 226 227 227 228 228 229 228 227 227 228 230 231 231 231 231 231 232 233 234 235 236 238 239 241 243 246 248 251 252 254 255 255 255 254 253 253 252 254 257 258 257 257 260 263 265 265 264 264 266 267 266 266 263 254 248 250 254 258 262 266 272 276 273 270 272 276 279 279 280 283 286 289 289 288 288 288 289 291 294 293 293 295
226 227 227 227 227 227 228 227 227 227 227 227 229 230 231 231 230 230 230 231 232 234 234 236 237 239 241 243 245 248 250 252 254 255 255 256 254 254 255 254 254 256 257 256 256 259 262 264 265 263 262 263 264 264 264 259 249 246 249 255 261 266 270 274 275 274 276 279 280 281 283 285 288 290 288 285 287 291 292 293 295 295 293 295 297
228 229 230 230 229 229 228 226 226 228 229 229 230 231 231 231 230 229 230 231 232 233 234 235 237 239 241 243 245 248 250 252 254 255 257 257 255 255 256 255 255 256 255 254 254 257 262 264 263 262 262 262 262 261 258 249 242 243 249 257 265 270 273 276 279 282 282 278 277 279 282 289 295 293 287 288 292 295 294 295 296 295 294 295 298
232 233 234 233 230 228 227 227 228 230 232 233 232 232 231 231 230 229 230 231 232 233 233 234 236 238 239 242 245 247 250 252 254 255 257 257 257 256 253 251 252 252 250 249 249 254 260 260 259 261 262 259 257 255 248 237 234 240 251 260 267 273 276 278 283 291 290 280 278 282 288 295 297 292 292 294 295 295 295 296 296 294 294 297 303
239 237 236 232 229 228 228 228 230 232 234 235 234 233 232 231 230 229 230 231 231 232 233 234 235 236 238 241 243 245 247 250 253 254 256 256 256 255 252 250 252 253 250 248 250 253 253 251 252 258 259 256 252 246 233 224 226 240 256 269 276 280 280 279 283 291 293 291 293 297 300 300 296 295 297 297 296 298 299 297 294 293 296 302 308
246 242 238 234 231 231 231 231 232 233 235 235 234 232 231 231 231 232 231 230 230 231 232 233 234 236 238 239 241 243 246 248 250 251 253 254 253 251 250 253 255 253 250 249 252 254 252 249 251 254 254 251 245 233 221 218 227 244 263 276 282 282 278 276 280 285 288 293 299 301 301 299 296 296 296 294 296 300 299 296 295 297 301 305 307
246 243 239 236 235 235 234 234 233 233 234 234 233 232 231 231 232 232 231 230 229 229 230 231 232 234 236 238 240 242 243 245 248 248 248 247 247 246 248 253 255 251 247 247 251 255 256 253 254 255 251 245 235 225 218 220 233 251 265 272 274 272 270 271 276 279 283 289 295 296 296 294 291 288 286 288 290 291 291 292 294 297 301 302 305
244 240 238 237 236 236 237 236 235 233 233 233 233 232 230 229 230 230 230 229 228 228 229 229 230 232 234 235 237 238 240 242 242 242 242 240 240 241 243 247 248 244 243 246 249 252 253 251 251 249 243 236 228 220 217 225 241 256 263 265 265 264 264 267 273 276 280 286 290 291 290 284 279 278 281 284 282 277 279 286 291 296 300 302 307
246 243 242 241 239 238 238 238 236 234 232 231 231 230 229 227 228 228 229 229 228 227 227 227 228 229 230 231 232 233 235 236 235 234 235 235 236 238 238 237 237 237 240 244 244 243 242 241 240 236 231 227 223 220 225 237 250 257 259 259 258 258 259 264 270 275 279 284 287 285 278 273 276 281 285 287 284 280 284 293 300 303 304 305 309
246 245 245 245 244 242 238 235 235 234 231 227 226 227 226 225 224 225 226 226 226 226 226 225 226 227 227 227 229 229 229 228 226 227 230 232 234 235 232 230 229 231 235 237 234 229 224 221 222 225 228 227 227 229 235 243 251 256 255 250 247 249 258 264 268 273 276 279 279 275 269 272 277 282 288 295 297 296 298 302 306 307 307 307 310
246 247 247 246 246 242 236 231 230 230 227 225 224 224 224 223 222 222 223 224 224 225 225 224 223 224 224 224 224 224 222 221 221 225 229 230 229 226 224 223 223 225 227 226 221 215 211 210 211 218 224 227 229 232 235 238 244 247 243 237 240 251 259 262 263 266 268 269 272 269 267 270 276 282 288 292 295 297 298 300 305 309 309 308 310
250 251 249 247 244 240 234 230 227 225 223 222 221 220 221 221 221 221 222 222 221 221 222 223 221 219 219 219 218 218 218 218 221 226 228 226 222 220 219 219 220 222 222 219 213 209 207 206 207 212 218 221 222 226 231 235 235 230 225 231 241 246 247 249 251 255 260 265 267 266 265 269 274 278 281 286 291 294 294 297 302 307 307 307 309
258 256 253 248 243 239 234 231 227 224 222 220 218 217 217 218 220 224 226 224 221 219 218 218 219 216 214 213 213 213 214 219 225 227 227 224 220 218 218 218 219 220 218 214 211 208 207 209 211 212 214 216 219 225 231 231 225 221 223 225 224 226 233 241 248 254 259 262 262 261 263 266 269 272 277 284 290 293 295 298 301 302 303 305 307
264 259 253 247 242 239 235 231 228 224 220 217 217 218 219 219 221 225 227 225 224 224 220 215 214 214 214 214 213 213 216 223 227 228 227 224 219 216 214 214 214 215 214 212 211 210 210 211 212 211 212 214 219 226 230 230 230 229 222 212 212 224 236 243 249 253 257 260 260 260 263 266 269 273 277 282 289 294 296 298 297 299 302 303 303
270 263 256 249 243 237 232 227 224 220 216 214 214 214 215 216 217 219 220 220 222 223 220 215 210 209 210 214 217 222 227 229 226 223 219 212 206 205 208 209 210 210 210 210 210 211 211 211 210 211 215 218 221 225 229 231 228 219 209 208 218 231 237 243 250 253 255 258 259 259 262 266 269 273 278 284 291 295 295 294 296 300 302 301 299
262 256 252 248 243 237 230 225 220 216 213 213 212 209 206 205 207 210 214 218 220 219 216 210 206 205 209 213 216 219 222 221 217 210 201 193 190 193 197 200 202 205 205 206 206 207 208 210 212 215 220 223 226 227 224 218 212 207 208 217 227 236 244 254 258 258 258 259 260 260 263 265 269 275 281 288 292 292 291 294 299 302 301 298 299
252 244 240 237 234 232 228 223 218 213 209 208 207 205 201 196 191 192 197 205 210 210 207 202 198 199 203 208 208 204 198 196 198 193 186 184 186 188 190 191 193 198 203 205 207 209 210 212 214 218 224 226 223 218 215 212 210 211 218 229 241 251 260 264 263 263 264 264 263 264 265 267 272 278 284 289 291 292 296 300 301 299 296 296 300
252 242 237 233 227 223 221 218 213 209 206 202 199 199 200 197 190 185 182 183 187 190 190 188 186 184 186 189 189 185 179 177 180 181 181 184 188 189 191 192 192 197 203 207 210 212 214 215 216 220 225 220 211 209 212 214 215 221 233 249 261 265 266 264 264 266 268 267 265 266 269 273 279 285 288 290 292 294 296 296 294 292 293 297 302
263 247 241 234 219 210 207 204 198 194 192 189 186 186 189 189 184 178 171 167 169 175 179 179 175 171 171 169 167 169 172 173 176 180 184 188 191 191 192 191 191 195 203 208 212 212 211 212 214 217 218 211 207 210 215 217 223 235 252 263 265 262 261 263 266 269 270 271 275 277 279 281 282 284 287 289 291 292 291 287 285 287 294 300 304
301 249 242 240 228 213 197 178 170 167 168 170 168 163 161 160 159 158 157 159 165 170 170 166 162 160 159 158 159 165 173 177 181 185 188 190 191 192 192 192 192 194 198 204 208 211 212 213 213 212 211 209 209 213 218 225 237 250 258 260 259 259 263 267 271 271 270 271 274 275 274 275 278 283 287 290 290 287 282 279 284 293 300 304 305
46 42 325 272 251 241 235 220 187 163 154 152 150 145 141 140 141 145 152 159 163 163 159 157 155 155 156 159 162 166 173 178 183 187 189 190 191 193 195 197 198 199 200 202 204 208 215 217 213 209 208 208 210 216 224 235 246 250 251 255 259 266 274 277 276 273 268 265 265 266 268 273 279 285 289 289 284 278 276 283 293 300 303 304 305
54 53 50 54 123 199 210 201 174 147 134 132 133 136 138 139 143 153 161 162 160 157 155 155 155 155 156 160 165 169 174 178 180 184 187 188 190 194 198 201 202 203 206 207 205 204 208 209 206 204 206 207 211 219 229 239 244 245 250 259 267 275 281 279 275 273 271 268 268 269 274 279 283 283 281 278 276 277 285 296 302 302 302 304 307
57 55 55 66 89 102 101 109 119 116 108 110 118 127 135 143 151 159 162 160 156 155 156 156 157 158 161 165 171 177 178 177 178 182 185 187 188 190 192 197 201 203 204 205 202 200 199 198 197 201 206 209 215 224 232 238 243 246 254 264 272 279 280 277 277 281 282 280 281 289 294 290 283 278 274 272 275 285 296 303 304 302 303 307 310
67 66 67 76 89 90 89 105 122 132 128 130 132 132 139 152 161 163 160 156 154 155 156 157 159 164 170 177 181 181 180 180 183 186 188 188 188 186 184 186 192 193 193 193 193 192 192 193 195 200 207 213 220 227 234 240 246 253 263 270 275 278 279 280 283 286 285 284 291 306 310 301 287 276 271 270 277 290 300 303 302 301 305 309 312
84 84 84 91 107 128 142 147 155 160 155 151 151 151 156 164 168 164 158 154 153 154 158 164 169 175 181 186 187 185 184 185 188 191 192 191 188 185 183 183 184 185 186 188 188 188 189 191 195 200 208 215 222 228 234 243 253 263 271 274 275 277 280 283 285 286 285 284 290 299 305 303 292 279 273 273 280 290 296 297 297 300 306 310 312
109 105 100 100 113 133 148 154 157 158 156 157 159 163 164 165 162 159 157 156 158 163 169 176 180 184 186 189 190 191 191 191 193 195 195 192 189 188 188 187 186 186 186 188 188 188 189 191 196 202 209 214 220 226 236 251 265 272 275 275 274 276 279 279 281 282 281 281 286 292 295 293 287 280 274 274 280 286 291 293 295 300 307 310 309
135 126 116 111 115 125 136 148 156 161 165 167 169 170 168 163 159 158 161 165 170 176 180 184 187 188 188 190 193 195 197 197 197 195 192 190 191 191 190 189 188 188 189 190 190 189 189 191 197 203 207 212 219 231 248 267 279 282 280 276 273 273 273 272 272 272 273 276 283 288 287 283 279 274 271 273 278 283 286 289 293 299 305 306 307
155 142 137 135 132 126 124 136 150 161 170 175 176 176 175 172 170 172 174 175 180 187 192 194 191 188 187 190 193 195 197 198 197 195 193 192 192 192 190 189 188 188 189 191 191 190 190 193 197 200 203 210 221 240 265 285 291 288 282 276 272 269 267 266 265 266 271 279 284 285 281 277 272 269 268 271 276 279 281 285 291 298 301 303 306
192 185 184 175 160 149 144 147 151 158 167 172 175 178 179 180 181 182 182 182 184 190 195 196 192 188 187 189 190 191 193 195 196 198 197 195 192 190 189 189 188 187 188 189 188 188 191 194 195 195 198 205 217 245 280 293 292 288 282 275 270 266 262 262 264 269 275 280 281 280 277 273 269 267 267 269 272 274 276 281 289 294 298 302 308
123 207 228 227 210 200 195 187 179 175 173 172 175 178 180 183 186 188 187 182 178 178 182 186 188 188 188 187 187 187 189 190 190 191 193 192 190 188 188 188 188 187 187 188 188 189 192 195 194 193 195 203 219 251 280 287 284 282 277 271 268 264 262 265 270 276 278 276 271 269 269 268 266 267 268 268 269 270 273 280 288 294 299 305 307
47 339 301 297 286 263 239 220 205 193 187 191 196 197 196 196 198 198 195 188 180 175 174 178 183 187 188 187 186 186 186 186 184 183 184 185 187 188 189 190 189 188 189 190 191 191 193 194 195 194 198 212 231 252 266 275 281 279 266 259 263 266 267 272 277 279 275 269 264 264 267 266 264 265 265 264 265 268 273 282 289 295 300 304 302
333 307 302 309 306 288 263 243 225 209 202 206 211 212 211 213 216 217 212 202 189 178 170 168 173 181 186 188 187 185 184 183 181 179 180 183 185 188 191 191 189 188 189 189 189 190 191 193 195 196 204 220 237 248 253 265 284 279 261 262 269 272 272 273 274 272 268 265 266 269 270 265 260 259 258 259 263 268 275 285 292 296 298 298 294
330 308 304 314 312 295 275 261 245 230 221 217 215 215 219 225 228 230 226 212 194 179 165 158 159 167 174 179 182 182 181 180 178 178 180 182 183 186 188 188 186 185 183 183 185 189 192 195 198 203 212 226 239 243 237 242 297 298 272 275 278 273 264 253 243 243 254 261 264 267 267 259 253 252 253 257 264 271 279 287 292 293 292 290 286
344 329 314 312 311 295 276 267 255 242 233 223 216 217 224 228 229 230 226 212 196 183 168 159 158 160 163 166 170 173 174 174 174 176 180 182 182 182 183 182 182 183 183 184 188 192 194 197 202 209 220 232 240 237 226 216 92 74 72 16 1 97 105 93 86 87 87 261 251 253 254 250 248 249 253 257 264 272 281 287 289 287 285 285 281
10 354 329 305 287 264 252 245 239 237 236 229 219 217 220 220 218 218 215 203 190 179 169 162 163 164 162 161 163 166 169 170 172 176 181 184 184 184 183 183 184 187 190 193 197 199 201 204 207 213 222 231 237 234 226 222 193 93 87 78 66 64 61 53 45 46 48 44 14 281 259 251 249 252 255 259 264 272 280 284 285 284 284 282 279
43 39 34 32 98 150 179 198 206 218 226 223 213 210 212 211 209 208 204 192 182 175 171 168 166 163 161 160 162 164 165 166 170 177 184 188 188 190 191 190 192 196 200 204 208 211 213 216 217 219 226 233 237 235 229 227 225 181 103 83 63 50 45 40 35 35 41 41 31 11 334 290 270 264 262 262 266 272 279 282 282 282 282 282 283
Height
1474 1477 1479 1482 1485 1487 1490 1493 1496 1499 1502 1504 1506 1508 1510 1512 1514 1517 1520 1522 1523 1525 1527 1528 1530 1532 1533 1535 1536 1537 1539 1540 1541 1542 1543 1544 1545 1546 1547 1547 1548 1549 1550 1551 1551 1552 1553 1554 1554 1555 1556 1557 1557 1558 1559 1559 1560 1561 1562 1563 1563 1564 1564 1564 1564 1564 1564 1565 1565 1565 1564 1564 1564 1565 1565 1565 1565 1564 1564 1564 1564 1563 1562 1561 1561
1470 1473 1476 1478 1480 1483 1487 1490 1492 1495 1498 1500 1501 1504 1506 1508 1511 1514 1516 1518 1520 1522 1524 1525 1527 1529 1531 1532 1534 1535 1536 1537 1539 1540 1540 1541 1542 1543 1544 1545 1546 1547 1547 1548 1549 1550 1551 1552 1553 1553 1554 1555 1555 1556 1557 1557 1558 1559 1559 1560 1561 1562 1562 1563 1563 1562 1563 1563 1563 1563 1563 1562 1563 1563 1563 1563 1563 1563 1563 1562 1562 1561 1560 1559 1558
1466 1469 1472 1474 1477 1480 1483 1486 1488 1491 1493 1495 1497 1499 1502 1505 1507 1510 1512 1514 1517 1519 1520 1523 1524 1526 1528 1529 1531 1532 1534 1535 1536 1537 1538 1539 1540 1541 1542 1543 1544 1544 1545 1546 1547 1548 1549 1550 1551 1552 1552 1553 1554 1554 1555 1555 1556 1556 1557 1558 1558 1559 1560 1561 1561 1561 1561 1562 1562 1562 1562 1561 1561 1561 1562 1562 1561 1561 1560 1560 1559 1558 1557 1557 1556
1463 1466 1468 1470 1474 1477 1480 1482 1485 1487 1489 1491 1493 1495 1498 1501 1503 1506 1508 1511 1513 1515 1518 1520 1522 1523 1525 1526 1528 1529 1530 1532 1533 1534 1535 1537 1538 1539 1540 1541 1541 1542 1543 1543 1545 1546 1547 1548 1549 1549 1550 1551 1552 1552 1553 1553 1554 1554 1555 1556 1557 1558 1559 1559 1560 1560 1560 1560 1560 1561 1561 1560 1560 1561 1560 1560 1559 1559 1558 1557 1556 1555 1555 1554 1553
1459 1461 1464 1468 1471 1473 1475 1478 1480 1482 1484 1487 1489 1492 1494 1497 1499 1502 1504 1507 1509 1512 1515 1516 1518 1520 1521 1523 1524 1526 1527 1529 1531 1532 1533 1534 1535 1536 1537 1538 1539 1540 1541 1541 1542 1543 1544 1545 1546 1547 1548 1549 1550 1550 1551 1551 1552 1553 1553 1554 1555 1556 1557 1557 1558 1558 1558 1558 1558 1559 1559 1559 1559 1559 1559 1558 1557 1557 1556 1555 1554 1553 1552 1551 1550
1454 1457 1460 1463 1466 1469 1471 1474 1476 1478 1481 1483 1486 1488 1491 1493 1496 1498 1500 1503 1506 1509 1511 1513 1515 1516 1518 1520 1521 1523 1525 1527 1528 1529 1531 1532 1533 1534 1535 1536 1536 1537 1538 1539 1540 1541 1542 1543 1544 1545 1545 1546 1547 1548 1549 1549 1550 1551 1552 1553 1554 1554 1555 1555 1556 1556 1557 1556 1556 1557 1557 1558 1557 1557 1557 1556 1555 1554 1553 1552 1551 1551 1550 1548 1548
1450 1453 1456 1459 1461 1464 1466 1469 1472 1475 1478 1481 1483 1486 1487 1490 1492 1494 1497 1500 1503 1505 1507 1509 1511 1513 1515 1517 1518 1520 1522 1523 1525 1526 1527 1528 1530 1531 1532 1533 1534 1535 1536 1537 1538 1538 1539 1540 1541 1542 1543 1544 1545 1546 1547 1547 1548 1549 1550 1551 1552 1552 1553 1554 1554 1555 1555 1554 1554 1554 1555 1555 1555 1555 1555 1554 1554 1553 1552 1550 1549 1549 1548 1546 1545
1446 1449 1451 1454 1456 1458 1461 1465 1469 1472 1476 1478 1481 1482 1484 1486 1489 1491 1494 1496 1499 1501 1503 1506 1508 1510 1512 1514 1515 1517 1518 1520 1521 1522 1524 1525 1527 1528 1529 1530 1531 1532 1533 1534 1535 1536 1536 1537 1538 1539 1540 1541 1542 1544 1544 1545 1546 1546 1548 1549 1550 1550 1551 1551 1552 1552 1552 1552 1551 1552 1552 1552 1552 1552 1552 1552 1551 1551 1550 1548 1546 1546 1545 1544 1543
1441 1444 1447 1449 1451 1454 1458 1462 1465 1469 1472 1474 1476 1478 1481 1484 1486 1489 1491 1493 1496 1498 1501 1503 1505 1506 1508 1510 1512 1513 1514 1515 1517 1518 1520 1522 1524 1525 1526 1527 1528 1529 1530 1531 1532 1533 1534 1534 1535 1536 1537 1539 1540 1541 1542 1542 1543 1544 1545 1546 1547 1548 1548 1549 1549 1549 1549 1549 1549 1549 1550 1549 1549 1549 1550 1549 1549 1548 1547 1546 1545 1543 1543 1541 1540
1437 1440 1442 1443 1446 1450 1454 1457 1461 1464 1467 1469 1472 1475 1478 1481 1483 1486 1487 1490 1493 1495 1497 1499 1501 1502 1504 1506 1508 1509 1510 1511 1512 1515 1517 1519 1521 1522 1523 1524 1525 1525 1526 1527 1528 1529 1530 1531 1532 1533 1534 1536 1537 1538 1539 1540 1540 1542 1543 1544 1545 1545 1546 1546 1546 1547 1547 1546 1547 1547 1547 1546 1546 1547 1547 1546 1546 1545 1545 1543 1542 1541 1540 1538 1538
1433 1435 1436 1438 1443 1446 1449 1453 1456 1459 1462 1465 1468 1471 1475 1478 1480 1482 1484 1487 1489 1491 1493 1495 1496 1498 1500 1502 1504 1505 1506 1507 1509 1511 1513 1516 1518 1519 1519 1521 1521 1522 1523 1523 1525 1526 1526 1528 1529 1530 1531 1532 1534 1535 1536 1536 1537 1539 1540 1541 1542 1543 1543 1543 1543 1544 1544 1544 1544 1544 1543 1543 1543 1544 1544 1543 1543 1542 1541 1540 1539 1538 1537 1536 1535
1428 1430 1432 1435 1439 1442 1444 1448 1451 1454 1458 1461 1464 1468 1472 1475 1477 1479 1481 1482 1484 1486 1488 1490 1491 1494 1496 1498 1499 1500 1502 1503 1505 1507 1510 1512 1514 1515 1516 1517 1517 1518 1519 1520 1521 1522 1522 1524 1525 1526 1527 1529 1530 1532 1533 1533 1534 1536 1537 1538 1539 1540 1540 1541 1541 1541 1541 1541 1541 1541 1540 1540 1540 1540 1540 1540 1539 1539 1538 1537 1536 1535 1534 1533 1532
1423 1426 1429 1432 1435 1437 1440 1444 1447 1450 1453 1457 1461 1465 1468 1471 1472 1474 1476 1478 1480 1482 1483 1485 1487 1489 1491 1493 1495 1496 1498 1499 1501 1503 1506 1509 1511 1512 1512 1513 1513 1514 1515 1516 1518 1518 1519 1520 1522 1523 1524 1525 1527 1529 1530 1530 1531 1533 1534 1536 1536 1537 1538 1538 1538 1538 1538 1539 1538 1538 1537 1537 1537 1538 1538 1537 1536 1535 1534 1534 1533 1532 1531 1531 1530
1419 1422 1425 1428 1430 1433 1436 1439 1442 1445 1448 1453 1458 1461 1463 1465 1466 1469 1471 1474 1476 1477 1479 1481 1483 1485 1487 1489 1491 1492 1494 1495 1497 1499 1503 1506 1507 1508 1508 1509 1509 1510 1512 1513 1514 1515 1515 1517 1518 1520 1521 1522 1524 1526 1527 1527 1528 1530 1532 1533 1534 1535 1535 1535 1535 1535 1536 1537 1536 1535 1535 1534 1534 1536 1536 1536 1535 1533 1531 1530 1530 1529 1528 1528 1527
1415 1417 1420 1423 1426 1429 1431 1434 1437 1441 1445 1449 1452 1455 1457 1459 1461 1464 1466 1469 1470 1472 1474 1477 1479 1481 1483 1485 1487 1488 1490 1492 1493 1496 1499 1502 1504 1504 1504 1504 1504 1505 1508 1510 1511 1512 1512 1514 1515 1517 1518 1519 1521 1522 1523 1525 1526 1527 1529 1531 1532 1533 1533 1533 1534 1533 1533 1534 1533 1533 1533 1532 1533 1534 1534 1534 1533 1531 1529 1528 1527 1526 1526 1525 1524
1411 1413 1416 1419 1421 1424 1426 1429 1433 1437 1441 1444 1446 1448 1450 1452 1455 1458 1461 1464 1466 1468 1470 1472 1474 1477 1479 1482 1483 1484 1486 1488 1490 1492 1495 1499 1500 1500 1499 1500 1501 1502 1505 1507 1508 1509 1509 1510 1512 1513 1514 1516 1517 1519 1520 1521 1523 1525 1527 1528 1530 1531 1531 1532 1532 1530 1530 1531 1532 1531 1530 1531 1532 1533 1533 1532 1530 1528 1526 1525 1524 1524 1523 1522 1521
1407 1410 1412 1414 1418 1420 1422 1426 1429 1433 1436 1437 1438 1441 1443 1447 1450 1453 1456 1459 1461 1463 1465 1467 1470 1473 1475 1477 1479 1481 1483 1484 1486 1489 1492 1496 1496 1495 1495 1497 1499 1500 1502 1504 1505 1506 1506 1507 1509 1511 1511 1512 1514 1515 1517 1518 1520 1522 1524 1526 1529 1529 1528 1529 1529 1527 1527 1529 1530 1529 1528 1528 1529 1529 1529 1528 1527 1525 1523 1522 1522 1522 1521 1519 1518
1403 1406 1407 1409 1413 1416 1419 1423 1426 1429 1430 1431 1432 1435 1439 1442 1445 1448 1451 1453 1455 1458 1460 1463 1466 1468 1470 1472 1475 1477 1479 1481 1483 1486 1490 1492 1492 1492 1494 1496 1496 1497 1500 1501 1503 1504 1504 1505 1507 1508 1508 1510 1511 1512 1514 1515 1517 1519 1522 1524 1526 1526 1524 1525 1526 1526 1527 1528 1527 1526 1526 1525 1524 1525 1525 1524 1523 1521 1520 1520 1520 1520 1519 1518 1516
1399 1401 1403 1405 1409 1412 1416 1419 1422 1424 1425 1426 1429 1432 1435 1438 1441 1444 1446 1448 1451 1454 1457 1459 1461 1463 1466 1468 1471 1474 1476 1478 1480 1484 1487 1489 1489 1490 1492 1492 1491 1493 1496 1498 1499 1501 1502 1503 1504 1505 1506 1507 1509 1510 1511 1512 1514 1517 1519 1521 1523 1522 1521 1522 1523 1523 1524 1525 1524 1524 1523 1522 1521 1521 1521 1521 1520 1519 1518 1518 1518 1517 1517 1516 1515
1396 1398 1401 1404 1408 1411 1413 1415 1418 1420 1421 1423 1425 1428 1432 1435 1438 1440 1442 1444 1447 1450 1453 1455 1457 1459 1462 1465 1467 1470 1472 1474 1477 1481 1484 1486 1486 1486 1487 1487 1488 1491 1493 1494 1496 1498 1500 1501 1502 1503 1504 1505 1506 1508 1509 1510 1512 1514 1516 1518 1519 1519 1519 1520 1520 1519 1520 1521 1521 1520 1519 1518 1518 1518 1518 1517 1517 1516 1516 1516 1516 1516 1515 1514 1513
1393 1396 1399 1402 1405 1407 1410 1412 1414 1416 1419 1421 1424 1426 1429 1432 1434 1435 1438 1440 1443 1446 1448 1450 1453 1455 1458 1461 1463 1466 1468 1471 1474 1477 1480 1482 1483 1483 1484 1485 1487 1489 1490 1492 1494 1495 1497 1498 1499 1501 1502 1504 1504 1505 1506 1508 1510 1511 1513 1515 1516 1517 1517 1518 1518 1517 1517 1517 1517 1516 1516 1516 1516 1516 1515 1515 1515 1514 1514 1514 1514 1513 1513 1512 1510
1390 1393 1395 1398 1400 1402 1404 1407 1410 1414 1417 1419 1421 1423 1425 1427 1430 1432 1434 1437 1439 1441 1443 1445 1449 1451 1454 1457 1459 1462 1464 1467 1471 1474 1476 1478 1479 1480 1481 1483 1485 1486 1488 1489 1491 1493 1494 1496 1497 1499 1501 1502 1503 1503 1504 1506 1508 1509 1511 1512 1513 1514 1515 1515 1515 1515 1515 1515 1514 1514 1514 1514 1514 1514 1514 1513 1513 1513 1513 1512 1512 1511 1510 1509 1508
1387 1390 1392 1394 1396 1398 1400 1402 1405 1408 1412 1415 1417 1419 1421 1424 1426 1428 1431 1433 1435 1437 1438 1441 1444 1447 1449 1452 1455 1458 1461 1464 1467 1470 1472 1474 1476 1477 1479 1480 1482 1484 1485 1487 1489 1491 1493 1494 1496 1498 1499 1500 1501 1501 1503 1504 1506 1507 1508 1509 1510 1511 1512 1512 1512 1512 1512 1512 1512 1512 1512 1512 1512 1512 1512 1511 1511 1511 1511 1510 1510 1509 1508 1507 1506
1384 1386 1388 1390 1391 1393 1395 1397 1399 1401 1404 1408 1411 1413 1416 1419 1421 1424 1426 1428 1431 1433 1434 1436 1439 1442 1445 1448 1451 1454 1457 1461 1464 1466 1468 1470 1472 1474 1476 1478 1480 1481 1483 1485 1487 1489 1491 1492 1494 1496 1498 1499 1500 1500 1501 1502 1503 1504 1505 1506 1507 1508 1509 1509 1510 1510 1510 1510 1510 1510 1510 1510 1510 1510 1510 1509 1509 1509 1509 1508 1508 1507 1506 1505 1504
1380 1381 1383 1384 1385 1386 1387 1390 1392 1394 1397 1400 1403 1406 1409 1412 1415 1418 1420 1423 1426 1428 1429 1432 1434 1437 1440 1443 1447 1451 1454 1457 1460 1462 1465 1467 1469 1471 1473 1475 1477 1479 1481 1483 1485 1487 1489 1491 1492 1494 1496 1497 1498 1499 1500 1501 1501 1501 1502 1503 1504 1505 1506 1507 1507 1507 1508 1508 1508 1508 1508 1507 1507 1507 1507 1507 1507 1507 1506 1506 1505 1504 1503 1502 1501
1375 1376 1377 1378 1379 1380 1381 1383 1385 1388 1391 1394 1397 1400 1402 1404 1407 1411 1415 1418 1420 1422 1425 1428 1431 1433 1437 1440 1444 1448 1451 1454 1456 1459 1461 1463 1465 1468 1470 1472 1474 1476 1478 1480 1483 1485 1487 1489 1490 1492 1494 1495 1496 1497 1498 1499 1499 1499 1499 1500 1502 1503 1503 1504 1505 1505 1505 1506 1506 1506 1506 1505 1505 1505 1505 1505 1505 1504 1504 1503 1502 1502 1501 1499 1498
1371 1371 1372 1373 1374 1375 1376 1378 1381 1383 1385 1388 1392 1394 1397 1400 1402 1404 1407 1410 1413 1417 1421 1424 1426 1429 1433 1438 1441 1445 1448 1451 1453 1455 1457 1459 1461 1464 1466 1469 1471 1473 1475 1478 1480 1483 1485 1486 1488 1490 1492 1493 1494 1495 1496 1496 1497 1497 1498 1499 1500 1501 1501 1502 1503 1503 1504 1504 1504 1504 1504 1504 1504 1504 1503 1503 1502 1502 1501 1500 1499 1499 1498 1497 1495
1367 1367 1367 1368 1369 1370 1371 1372 1374 1376 1379 1382 1385 1388 1390 1393 1396 1398 1399 1399 1402 1407 1413 1417 1421 1426 1430 1434 1438 1441 1444 1447 1449 1451 1453 1456 1458 1460 1462 1464 1467 1469 1472 1476 1478 1481 1483 1484 1486 1488 1489 1491 1492 1493 1493 1494 1494 1495 1496 1497 1497 1499 1499 1500 1501 1502 1502 1502 1502 1502 1502 1502 1502 1501 1501 1500 1500 1500 1499 1498 1497 1497 1496 1494 1493
1365 1365 1365 1365 1365 1366 1366 1367 1368 1369 1371 1373 1376 1379 1381 1383 1386 1390 1393 1395 1397 1400 1404 1410 1415 1421 1426 1430 1434 1437 1440 1443 1446 1450 1452 1454 1456 1457 1459 1461 1463 1467 1471 1474 1476 1478 1480 1482 1484 1486 1487 1489 1490 1490 1491 1491 1492 1493 1493 1494 1495 1496 1497 1498 1499 1500 1500 1500 1500 1500 1500 1499 1499 1499 1499 1498 1498 1498 1497 1496 1495 1495 1493 1492 1490
1362 1363 1363 1364 1363 1363 1363 1363 1363 1364 1364 1364 1365 1368 1371 1373 1376 1379 1385 1395 1402 1402 1402 1406 1411 1417 1423 1428 1431 1435 1439 1442 1446 1449 1450 1452 1454 1455 1457 1459 1462 1465 1469 1472 1474 1477 1478 1480 1482 1484 1485 1487 1487 1488 1489 1489 1490 1491 1491 1492 1494 1494 1495 1496 1497 1497 1497 1497 1497 1497 1497 1497 1497 1497 1496 1496 1496 1496 1495 1494 1493 1492 1491 1490 1488
1359 1359 1360 1360 1360 1359 1359 1358 1357 1357 1356 1356 1357 1358 1360 1364 1368 1372 1378 1390 1402 1406 1405 1406 1409 1414 1420 1425 1429 1433 1437 1441 1444 1446 1448 1451 1453 1455 1457 1459 1461 1464 1467 1470 1472 1474 1476 1478 1480 1482 1483 1484 1485 1486 1487 1487 1488 1489 1489 1490 1491 1492 1493 1494 1494 1494 1494 1494 1494 1494 1494 1494 1494 1494 1494 1494 1494 1493 1493 1492 1491 1490 1488 1487 1486
1357 1357 1357 1357 1356 1354 1353 1352 1351 1350 1350 1350 1351 1352 1353 1355 1362 1370 1378 1387 1398 1405 1408 1407 1408 1412 1418 1423 1426 1430 1434 1437 1441 1444 1447 1449 1452 1454 1457 1458 1460 1463 1466 1468 1470 1472 1474 1476 1478 1479 1481 1482 1483 1484 1485 1485 1486 1487 1488 1488 1489 1490 1491 1491 1492 1492 1492 1492 1492 1492 1492 1492 1492 1492 1492 1491 1491 1491 1490 1489 1488 1487 1486 1485 1484
1356 1356 1355 1355 1354 1352 1349 1346 1343 1342 1343 1345 1346 1348 1349 1349 1351 1359 1374 1387 1398 1404 1407 1408 1409 1411 1415 1419 1424 1428 1431 1435 1438 1442 1445 1448 1451 1453 1456 1458 1459 1461 1464 1466 1468 1470 1472 1474 1476 1478 1479 1480 1481 1482 1483 1483 1484 1485 1486 1487 1487 1488 1488 1489 1489 1490 1490 1490 1490 1490 1489 1490 1489 1489 1489 1489 1489 1488 1488 1487 1486 1485 1484 1483 1482
1355 1355 1356 1356 1355 1353 1350 1345 1339 1336 1336 1339 1341 1344 1346 1345 1343 1347 1361 1378 1392 1401 1405 1407 1409 1410 1413 1418 1422 1426 1430 1433 1437 1440 1443 1446 1449 1452 1454 1456 1458 1460 1462 1464 1466 1468 1471 1472 1474 1475 1477 1478 1479 1480 1481 1482 1483 1484 1484 1485 1485 1486 1486 1487 1487 1488 1488 1487 1487 1487 1487 1487 1487 1487 1487 1487 1486 1486 1485 1484 1484 1483 1482 1481 1480
1356 1357 1358 1358 1357 1356 1354 1350 1346 1341 1339 1341 1344 1346 1347 1348 1348 1351 1358 1370 1384 1395 1401 1404 1407 1410 1414 1418 1422 1425 1430 1433 1436 1439 1441 1444 1447 1450 1451 1453 1455 1457 1459 1462 1464 1467 1469 1470 1471 1473 1474 1475 1477 1478 1479 1480 1481 1482 1482 1483 1483 1484 1484 1485 1485 1485 1485 1485 1485 1485 1485 1485 1484 1484 1484 1484 1484 1483 1483 1482 1482 1481 1480 1479 1478
1358 1359 1359 1359 1358 1358 1357 1356 1354 1350 1347 1347 1352 1354 1355 1357 1360 1366 1372 1380 1387 1393 1397 1401 1405 1410 1414 1418 1421 1425 1430 1433 1435 1439 1442 1443 1445 1447 1449 1451 1453 1455 1457 1459 1462 1464 1466 1468 1469 1471 1472 1473 1475 1476 1478 1479 1479 1480 1480 1480 1481 1481 1482 1483 1483 1483 1483 1483 1482 1482 1482 1482 1482 1482 1482 1482 1482 1481 1481 1480 1480 1479 1478 1477 1476
1362 1361 1361 1361 1361 1360 1360 1360 1361 1358 1354 1355 1359 1362 1363 1365 1370 1377 1384 1389 1391 1393 1396 1401 1405 1409 1413 1417 1421 1426 1429 1432 1435 1439 1442 1443 1444 1446 1448 1450 1451 1453 1455 1457 1459 1462 1464 1466 1467 1469 1470 1472 1474 1475 1476 1477 1478 1478 1478 1478 1479 1479 1480 1480 1481 1481 1480 1480 1480 1479 1479 1479 1479 1479 1479 1479 1479 1479 1479 1478 1478 1477 1476 1475 1474
1365 1364 1363 1364 1365 1366 1366 1366 1367 1366 1364 1364 1367 1369 1370 1374 1379 1385 1390 1392 1393 1395 1398 1402 1405 1408 1411 1416 1421 1425 1428 1432 1435 1438 1440 1442 1443 1445 1447 1449 1450 1452 1453 1456 1458 1460 1462 1464 1466 1467 1469 1470 1472 1474 1475 1475 1476 1476 1476 1476 1477 1477 1478 1478 1478 1478 1478 1477 1477 1476 1477 1477 1477 1477 1477 1477 1477 1477 1477 1476 1476 1475 1474 1473 1472
1370 1369 1368 1368 1369 1371 1373 1373 1373 1373 1372 1373 1374 1376 1379 1384 1388 1391 1392 1393 1395 1397 1400 1403 1406 1409 1412 1415 1420 1423 1426 1430 1433 1436 1438 1441 1442 1444 1446 1447 1449 1450 1452 1455 1457 1459 1461 1463 1464 1466 1467 1469 1471 1472 1473 1474 1474 1474 1474 1475 1475 1475 1476 1476 1475 1475 1475 1474 1474 1474 1474 1475 1475 1475 1475 1475 1476 1475 1475 1474 1474 1473 1472 1471 1470
1374 1374 1374 1373 1374 1375 1376 1377 1377 1378 1378 1379 1381 1383 1386 1389 1392 1393 1394 1394 1396 1399 1402 1404 1407 1410 1412 1415 1419 1421 1424 1427 1431 1434 1437 1440 1442 1443 1444 1446 1447 1449 1452 1454 1456 1458 1460 1461 1463 1464 1466 1468 1470 1471 1472 1472 1473 1472 1472 1472 1473 1473 1473 1473 1473 1473 1472 1472 1472 1472 1472 1473 1473 1473 1473 1473 1473 1473 1473 1472 1472 1471 1470 1469 1468
1377 1376 1376 1376 1377 1378 1379 1380 1381 1381 1382 1384 1386 1388 1390 1392 1394 1395 1396 1397 1399 1401 1403 1406 1408 1410 1413 1416 1419 1421 1424 1426 1430 1433 1436 1439 1441 1442 1444 1445 1447 1449 1451 1454 1456 1457 1459 1460 1461 1463 1465 1467 1469 1470 1471 1471 1471 1470 1470 1470 1471 1471 1471 1471 1471 1471 1470 1470 1470 1470 1470 1470 1471 1471 1471 1471 1471 1471 1471 1470 1470 1469 1468 1467 1466
1379 1378 1378 1378 1378 1379 1380 1382 1383 1384 1386 1387 1388 1390 1392 1393 1394 1395 1397 1399 1401 1402 1404 1406 1408 1411 1414 1417 1419 1422 1424 1427 1429 1432 1434 1437 1440 1441 1443 1445 1447 1449 1451 1453 1455 1456 1457 1459 1460 1463 1464 1466 1467 1469 1469 1469 1469 1468 1468 1468 1469 1469 1469 1469 1469 1468 1468 1468 1468 1468 1468 1468 1468 1469 1469 1469 1469 1469 1469 1468 1468 1467 1467 1466 1465
1380 1380 1380 1380 1380 1381 1382 1384 1385 1386 1387 1389 1390 1392 1393 1394 1395 1396 1397 1399 1401 1403 1406 1407 1409 1411 1414 1417 1419 1421 1424 1427 1429 1431 1433 1436 1438 1440 1442 1444 1446 1448 1451 1452 1454 1455 1456 1458 1460 1462 1464 1465 1466 1467 1468 1468 1467 1467 1467 1467 1467 1467 1467 1467 1467 1466 1466 1465 1465 1465 1465 1466 1466 1466 1467 1467 1467 1467 1467 1467 1466 1466 1465 1464 1463
1381 1381 1382 1382 1382 1382 1384 1385 1386 1387 1388 1390 1391 1393 1394 1395 1397 1397 1398 1399 1401 1404 1406 1408 1409 1412 1414 1416 1419 1421 1423 1425 1428 1431 1433 1435 1437 1439 1441 1443 1445 1448 1450 1451 1452 1454 1455 1457 1459 1461 1463 1464 1465 1466 1466 1466 1465 1465 1465 1465 1465 1465 1465 1465 1465 1464 1463 1463 1463 1463 1463 1463 1463 1464 1464 1464 1465 1465 1465 1465 1464 1464 1463 1462 1461
1382 1382 1383 1383 1384 1384 1385 1387 1388 1389 1390 1391 1392 1394 1395 1396 1397 1398 1400 1401 1402 1403 1405 1407 1409 1412 1414 1415 1417 1420 1422 1424 1427 1430 1432 1434 1436 1438 1440 1442 1445 1447 1448 1449 1451 1452 1454 1457 1459 1460 1461 1463 1464 1465 1465 1465 1464 1464 1464 1464 1464 1464 1463 1463 1463 1462 1461 1461 1460 1460 1460 1461 1461 1462 1462 1462 1463 1463 1463 1463 1462 1462 1461 1460 1460
1383 1383 1383 1383 1385 1387 1388 1388 1389 1389 1390 1392 1393 1394 1395 1396 1397 1399 1400 1401 1401 1402 1404 1406 1408 1410 1412 1414 1417 1419 1421 1424 1426 1428 1431 1433 1435 1437 1439 1441 1443 1445 1447 1448 1450 1452 1454 1456 1458 1459 1460 1462 1463 1464 1464 1464 1463 1463 1462 1462 1462 1462 1461 1461 1460 1459 1459 1458 1458 1458 1458 1458 1459 1460 1460 1461 1461 1461 1461 1461 1461 1460 1459 1459 1458
1383 1384 1384 1385 1386 1387 1389 1389 1389 1389 1390 1391 1393 1394 1395 1396 1397 1398 1400 1401 1402 1403 1403 1405 1407 1409 1411 1414 1416 1419 1421 1423 1425 1427 1429 1432 1434 1436 1438 1440 1442 1443 1445 1447 1449 1451 1454 1455 1457 1458 1459 1460 1461 1462 1463 1462 1462 1461 1461 1461 1461 1460 1459 1458 1458 1457 1457 1456 1456 1456 1456 1456 1457 1458 1458 1459 1459 1459 1459 1459 1459 1458 1458 1457 1457
1384 1384 1385 1385 1386 1386 1387 1387 1388 1388 1389 1390 1392 1393 1394 1395 1396 1398 1400 1402 1404 1405 1405 1405 1407 1409 1411 1414 1416 1419 1421 1423 1425 1427 1429 1430 1432 1434 1437 1438 1440 1442 1444 1447 1449 1451 1453 1455 1456 1456 1457 1459 1460 1461 1461 1460 1460 1460 1459 1459 1459 1458 1457 1456 1456 1455 1455 1455 1454 1454 1454 1454 1455 1456 1457 1457 1457 1457 1457 1457 1457 1456 1456 1456 1455
1384 1385 1385 1386 1386 1386 1386 1387 1387 1388 1388 1389 1391 1392 1393 1393 1395 1397 1399 1401 1403 1404 1404 1405 1407 1409 1412 1414 1416 1418 1420 1422 1424 1426 1428 1430 1432 1434 1436 1437 1440 1442 1444 1446 1449 1450 1452 1453 1454 1455 1456 1457 1458 1459 1459 1458 1458 1458 1458 1457 1457 1456 1455 1455 1455 1454 1454 1453 1453 1453 1453 1453 1453 1454 1455 1455 1455 1455 1455 1455 1455 1454 1454 1454 1454
1385 1385 1385 1386 1386 1386 1387 1387 1388 1388 1388 1389 1390 1391 1392 1393 1394 1395 1396 1398 1401 1403 1404 1405 1407 1409 1411 1413 1415 1418 1420 1422 1423 1425 1427 1429 1431 1433 1435 1437 1439 1441 1444 1446 1448 1449 1450 1451 1452 1452 1454 1455 1456 1457 1457 1457 1457 1457 1456 1456 1456 1455 1455 1454 1454 1454 1453 1452 1452 1451 1451 1451 1452 1452 1453 1453 1453 1453 1453 1453 1453 1452 1452 1452 1452
1386 1386 1386 1387 1387 1387 1387 1388 1388 1388 1388 1389 1389 1390 1391 1392 1393 1394 1395 1397 1400 1401 1403 1405 1407 1409 1411 1413 1415 1417 1419 1421 1423 1425 1427 1429 1431 1433 1435 1437 1439 1441 1443 1445 1446 1447 1448 1449 1450 1451 1452 1454 1455 1455 1455 1455 1455 1456 1455 1455 1455 1455 1454 1454 1453 1453 1452 1452 1451 1451 1450 1450 1450 1450 1451 1451 1451 1451 1451 1451 1451 1451 1451 1451 1451